Tracking 19176 objects as of 27-May-2018
HD Live streaming from Space Station
objects crossing your sky now

COSMOS 1134

Track COSMOS 1134 now!
10-day predictions
COSMOS 1134 is classified as:


NORAD ID: 11542
Int'l Code: 1979-084E
Perigee: 1,460.7 km
Apogee: 1,490.7 km
Inclination: 74.0 °
Period: 115.3 minutes
Semi major axis: 7846 km
RCS: 0.6885 m2 (medium)
Launch date: September 25, 1979
Source: Commonwealth of Independent States (former USSR) (CIS)
Launch site: PLESETSK MISSILE AND SPACE COMPLEX (PKMTR)
aabbcc
Your satellite tracking list
Your tracking list is empty




NASA's NSSDC Master Catalog

Two Line Element Set (TLE):
1 11542U 79084E   18146.92317000 -.00000013 +00000-0 +20764-4 0  9991
2 11542 074.0241 311.1928 0019123 201.6017 313.1300 12.49034039763092
Source of the keplerian elements: AFSPC